Time,TemperatureF,DewpointF,PressureIn,WindDirection,WindDirectionDegrees,WindSpeedMPH,WindSpeedGustMPH,Humidity,HourlyPrecipIn,Conditions,Clouds,dailyrainin,SoftwareType,DateUTC
2013-05-24 00:00:00,50.4,17.6,29.18,NNW,332,5.0,6.0,27,0.00,RA,,0.00,WeatherDisplay:10.37,2013-05-24 04:00:00,
2013-05-24 00:05:00,50.4,17.6,29.18,NNW,331,2.0,6.0,27,0.00,RA,,0.00,WeatherDisplay:10.37,2013-05-24 04:05:00,
2013-05-24 00:10:00,50.4,17.6,29.15,NNW,328,3.0,6.0,27,0.00,CLR,,0.00,WeatherDisplay:10.37,2013-05-24 04:10:00,
2013-05-24 00:15:00,50.2,17.4,29.15,NNW,330,3.0,6.0,27,0.00,CLR,,0.00,WeatherDisplay:10.37,2013-05-24 04:15:00,
2013-05-24 00:20:00,50.2,17.4,29.15,NNW,330,3.0,4.0,27,0.00,CLR,,0.00,WeatherDisplay:10.37,2013-05-24 04:20:00,
2013-05-24 00:25:00,50.0,17.3,29.15,NNW,329,0.0,4.0,27,0.00,CLR,,0.00,WeatherDisplay:10.37,2013-05-24 04:25:00,
2013-05-24 00:30:00,50.0,17.3,29.15,NNW,329,0.0,5.0,27,0.00,CLR,,0.00,WeatherDisplay:10.37,2013-05-24 04:30:00,
2013-05-24 00:35:00,50.0,18.1,29.15,NNW,329,2.0,6.0,28,0.00,CLR,,0.00,WeatherDisplay:10.37,2013-05-24 04:35:00,
2013-05-24 00:40:00,50.0,18.1,29.15,NW,311,0.0,3.0,28,0.00,CLR,,0.00,WeatherDisplay:10.37,2013-05-24 04:40:00,
2013-05-24 00:45:00,50.0,17.3,29.15,NW,326,2.0,6.0,27,0.00,CLR,,0.00,WeatherDisplay:10.37,2013-05-24 04:45:00,
2013-05-24 00:50:00,49.8,18.0,29.15,NNW,348,0.0,6.0,28,0.00,CLR,,0.00,WeatherDisplay:10.37,2013-05-24 04:50:00,
2013-05-24 00:55:00,49.8,18.0,29.15,NNW,342,1.0,4.0,28,0.00,CLR,,0.00,WeatherDisplay:10.37,2013-05-24 04:55:00,
2013-05-24 01:00:00,50.0,17.3,29.18,NNW,328,2.0,4.0,27,0.00,CLR,,0.00,WeatherDisplay:10.37,2013-05-24 05:00:00,
2013-05-24 01:05:00,50.0,17.3,29.18,NNW,328,2.0,6.0,27,0.00,CLR,,0.00,WeatherDisplay:10.37,2013-05-24 05:05:00,
2013-05-24 01:10:00,50.0,17.3,29.18,NNW,327,3.0,6.0,27,0.00,CLR,,0.00,WeatherDisplay:10.37,2013-05-24 05:10:00,
2013-05-24 01:15:00,49.7,17.0,29.18,NW,323,5.0,7.0,27,0.00,CLR,,0.00,WeatherDisplay:10.37,2013-05-24 05:15:00,
2013-05-24 01:20:00,49.3,16.7,29.18,NW,322,5.0,6.0,27,0.00,CLR,,0.00,WeatherDisplay:10.37,2013-05-24 05:20:00,
2013-05-24 01:25:00,48.9,16.4,29.18,NNW,327,5.0,9.0,27,0.00,CLR,,0.00,WeatherDisplay:10.37,2013-05-24 05:25:00,
2013-05-24 01:30:00,48.7,16.2,29.18,NW,323,5.0,6.0,27,0.00,CLR,,0.00,WeatherDisplay:10.37,2013-05-24 05:30:00,
2013-05-24 01:35:00,48.6,16.0,29.18,NW,323,3.0,6.0,27,0.00,CLR,,0.00,WeatherDisplay:10.37,2013-05-24 05:35:00,
2013-05-24 01:40:00,48.4,15.9,29.18,NNW,330,3.0,8.0,27,0.00,CLR,,0.00,WeatherDisplay:10.37,2013-05-24 05:40:00,
2013-05-24 01:45:00,48.4,15.9,29.18,NNW,329,2.0,5.0,27,0.00,CLR,,0.00,WeatherDisplay:10.37,2013-05-24 05:45:00,
2013-05-24 01:50:00,48.2,15.7,29.18,NW,325,5.0,6.0,27,0.00,CLR,,0.00,WeatherDisplay:10.37,2013-05-24 05:50:00,
2013-05-24 01:55:00,48.2,15.7,29.18,NW,325,3.0,6.0,27,0.00,CLR,,0.00,WeatherDisplay:10.37,2013-05-24 05:55:00,
2013-05-24 02:00:00,48.0,16.4,29.18,NNW,328,3.0,4.0,28,0.00,CLR,,0.00,WeatherDisplay:10.37,2013-05-24 06:00:00,
2013-05-24 02:05:00,48.0,16.4,29.18,NW,325,3.0,4.0,28,0.00,CLR,,0.00,WeatherDisplay:10.37,2013-05-24 06:05:00,
2013-05-24 02:10:00,48.0,16.4,29.18,NW,324,3.0,4.0,28,0.00,CLR,,0.00,WeatherDisplay:10.37,2013-05-24 06:10:00,
2013-05-24 02:15:00,48.0,16.4,29.18,NW,326,3.0,6.0,28,0.00,CLR,,0.00,WeatherDisplay:10.37,2013-05-24 06:15:00,
2013-05-24 02:20:00,48.0,16.4,29.18,NW,323,3.0,6.0,28,0.00,CLR,,0.00,WeatherDisplay:10.37,2013-05-24 06:20:00,
2013-05-24 02:25:00,47.8,16.3,29.18,NNW,327,3.0,6.0,28,0.00,CLR,,0.00,WeatherDisplay:10.37,2013-05-24 06:25:00,
2013-05-24 02:30:00,47.5,15.9,29.18,NNW,330,3.0,5.0,28,0.00,CLR,,0.00,WeatherDisplay:10.37,2013-05-24 06:30:00,
2013-05-24 02:35:00,47.3,15.8,29.18,NNW,329,2.0,6.0,28,0.00,CLR,,0.00,WeatherDisplay:10.37,2013-05-24 06:35:00,
2013-05-24 02:40:00,47.1,15.6,29.18,NNW,329,3.0,6.0,28,0.00,CLR,,0.00,WeatherDisplay:10.37,2013-05-24 06:40:00,
2013-05-24 02:45:00,46.9,16.3,29.18,NNW,327,2.0,6.0,29,0.00,CLR,,0.00,WeatherDisplay:10.37,2013-05-24 06:45:00,
2013-05-24 02:50:00,46.9,16.3,29.18,NNW,328,0.0,3.0,29,0.00,CLR,,0.00,WeatherDisplay:10.37,2013-05-24 06:50:00,
2013-05-24 02:55:00,46.9,16.3,29.18,NNW,332,0.0,3.0,29,0.00,CLR,,0.00,WeatherDisplay:10.37,2013-05-24 06:55:00,
2013-05-24 03:00:00,46.9,16.3,29.18,NNW,332,1.0,4.0,29,0.00,CLR,,0.00,WeatherDisplay:10.37,2013-05-24 07:00:00,
2013-05-24 03:05:00,46.9,16.3,29.18,NNW,338,2.0,4.0,29,0.00,CLR,,0.00,WeatherDisplay:10.37,2013-05-24 07:05:00,
2013-05-24 03:10:00,46.9,16.3,29.20,NNW,330,0.0,3.0,29,0.00,CLR,,0.00,WeatherDisplay:10.37,2013-05-24 07:10:00,
2013-05-24 03:15:00,47.0,16.3,29.20,NW,322,0.0,0.0,29,0.00,CLR,,0.00,WeatherDisplay:10.37,2013-05-24 07:15:00,
2013-05-24 03:20:00,47.1,17.2,29.20,NNW,330,1.0,6.0,30,0.00,CLR,,0.00,WeatherDisplay:10.37,2013-05-24 07:20:00,
2013-05-24 03:25:00,47.3,17.4,29.20,NNW,331,0.0,0.0,30,0.00,CLR,,0.00,WeatherDisplay:10.37,2013-05-24 07:25:00,
2013-05-24 03:30:00,47.3,17.4,29.20,NNW,330,0.0,4.0,30,0.00,CLR,,0.00,WeatherDisplay:10.37,2013-05-24 07:30:00,
2013-05-24 03:35:00,47.3,17.4,29.20,NNW,330,0.0,0.0,30,0.00,CLR,,0.00,WeatherDisplay:10.37,2013-05-24 07:35:00,
2013-05-24 03:40:00,47.3,17.4,29.18,NNW,330,0.0,0.0,30,0.00,CLR,,0.00,WeatherDisplay:10.37,2013-05-24 07:40:00,
2013-05-24 03:45:00,47.3,16.6,29.18,NNW,330,0.0,0.0,29,0.00,CLR,,0.00,WeatherDisplay:10.37,2013-05-24 07:45:00,
2013-05-24 03:50:00,47.3,16.6,29.18,NNW,330,0.0,2.0,29,0.00,CLR,,0.00,WeatherDisplay:10.37,2013-05-24 07:50:00,
2013-05-24 03:55:00,47.1,16.4,29.20,NNW,330,0.0,3.0,29,0.00,CLR,,0.00,WeatherDisplay:10.37,2013-05-24 07:55:00,
2013-05-24 04:00:00,46.8,16.1,29.20,NNW,330,0.0,0.0,29,0.00,CLR,,0.00,WeatherDisplay:10.37,2013-05-24 08:00:00,
2013-05-24 04:05:00,46.4,15.9,29.20,NNW,330,0.0,0.0,29,0.00,CLR,,0.00,WeatherDisplay:10.37,2013-05-24 08:05:00,
2013-05-24 04:10:00,46.2,16.4,29.20,NNW,330,0.0,0.0,30,0.00,CLR,,0.00,WeatherDisplay:10.37,2013-05-24 08:10:00,
2013-05-24 04:15:00,46.0,16.3,29.20,NNW,330,0.0,0.0,30,0.00,CLR,,0.00,WeatherDisplay:10.37,2013-05-24 08:15:00,
2013-05-24 04:20:00,45.7,16.0,29.20,NNW,330,0.0,0.0,30,0.00,CLR,,0.00,WeatherDisplay:10.37,2013-05-24 08:20:00,
2013-05-24 04:25:00,45.5,15.8,29.20,NNW,330,0.0,0.0,30,0.00,CLR,,0.00,WeatherDisplay:10.37,2013-05-24 08:25:00,
2013-05-24 04:30:00,45.5,16.6,29.20,NNW,330,0.0,3.0,31,0.00,CLR,,0.00,WeatherDisplay:10.37,2013-05-24 08:30:00,
2013-05-24 04:35:00,45.3,17.1,29.20,NNW,330,0.0,0.0,32,0.00,CLR,,0.00,WeatherDisplay:10.37,2013-05-24 08:35:00,
2013-05-24 04:40:00,45.1,17.7,29.24,NNW,330,0.0,0.0,33,0.00,CLR,,0.00,WeatherDisplay:10.37,2013-05-24 08:40:00,
2013-05-24 04:45:00,44.8,17.4,29.24,NNW,330,0.0,0.0,33,0.00,CLR,,0.00,WeatherDisplay:10.37,2013-05-24 08:45:00,
2013-05-24 04:50:00,44.6,17.2,29.24,NNW,330,0.0,0.0,33,0.00,CLR,,0.00,WeatherDisplay:10.37,2013-05-24 08:50:00,
2013-05-24 04:55:00,44.4,17.8,29.21,NNW,330,0.0,0.0,34,0.00,CLR,,0.00,WeatherDisplay:10.37,2013-05-24 08:55:00,
2013-05-24 05:00:00,44.2,17.6,29.20,NNW,330,0.0,0.0,34,0.00,CLR,,0.00,WeatherDisplay:10.37,2013-05-24 09:00:00,
2013-05-24 05:05:00,44.1,16.8,29.20,NNW,330,0.0,0.0,33,0.00,CLR,,0.00,WeatherDisplay:10.37,2013-05-24 09:05:00,
2013-05-24 05:10:00,43.9,17.3,29.23,NNW,330,0.0,0.0,34,0.00,CLR,,0.00,WeatherDisplay:10.37,2013-05-24 09:10:00,
2013-05-24 05:15:00,43.7,17.1,29.24,NNW,330,0.0,0.0,34,0.00,CLR,,0.00,WeatherDisplay:10.37,2013-05-24 09:15:00,
2013-05-24 05:20:00,43.7,17.1,29.24,NNW,330,0.0,0.0,34,0.00,CLR,,0.00,WeatherDisplay:10.37,2013-05-24 09:20:00,
2013-05-24 05:25:00,43.5,16.3,29.24,NNW,330,0.0,0.0,33,0.00,CLR,,0.00,WeatherDisplay:10.37,2013-05-24 09:25:00,
2013-05-24 05:30:00,43.3,16.1,29.24,NNW,330,0.0,0.0,33,0.00,CLR,,0.00,WeatherDisplay:10.37,2013-05-24 09:30:00,
2013-05-24 05:35:00,43.3,16.8,29.24,NNW,330,0.0,0.0,34,0.00,CLR,,0.00,WeatherDisplay:10.37,2013-05-24 09:35:00,
2013-05-24 05:40:00,43.0,15.8,29.24,NNW,330,0.0,0.0,33,0.00,CLR,,0.00,WeatherDisplay:10.37,2013-05-24 09:40:00,
2013-05-24 05:45:00,43.0,15.8,29.24,NNW,330,0.0,0.0,33,0.00,CLR,,0.00,WeatherDisplay:10.37,2013-05-24 09:45:00,
2013-05-24 05:50:00,42.8,16.3,29.24,NNW,330,0.0,2.0,34,0.00,CLR,,0.00,WeatherDisplay:10.37,2013-05-24 09:50:00,
2013-05-24 05:55:00,42.8,16.3,29.24,NNW,330,0.0,2.0,34,0.00,CLR,,0.00,WeatherDisplay:10.37,2013-05-24 09:55:00,
2013-05-24 06:00:00,42.4,16.0,29.24,NNW,330,0.0,0.0,34,0.00,CLR,,0.00,WeatherDisplay:10.37,2013-05-24 10:00:00,
2013-05-24 06:05:00,42.3,15.9,29.24,NNW,330,0.0,0.0,34,0.00,CLR,,0.00,WeatherDisplay:10.37,2013-05-24 10:05:00,
2013-05-24 06:10:00,42.2,16.4,29.24,NNW,330,0.0,0.0,35,0.00,CLR,,0.00,WeatherDisplay:10.37,2013-05-24 10:10:00,
2013-05-24 06:15:00,42.6,18.1,29.24,NNW,330,0.0,3.0,37,0.00,CLR,,0.00,WeatherDisplay:10.37,2013-05-24 10:15:00,
2013-05-24 06:20:00,42.8,18.9,29.24,NNW,330,0.0,0.0,38,0.00,CLR,,0.00,WeatherDisplay:10.37,2013-05-24 10:20:00,
2013-05-24 06:25:00,42.8,19.5,29.24,NNW,330,0.0,0.0,39,0.00,CLR,,0.00,WeatherDisplay:10.37,2013-05-24 10:25:00,
2013-05-24 06:30:00,43.0,20.3,29.24,NW,323,0.0,4.0,40,0.00,CLR,,0.00,WeatherDisplay:10.37,2013-05-24 10:30:00,
2013-05-24 06:35:00,43.0,20.3,29.24,NW,319,0.0,0.0,40,0.00,CLR,,0.00,WeatherDisplay:10.37,2013-05-24 10:35:00,
2013-05-24 06:40:00,43.0,21.4,29.24,NW,319,0.0,4.0,42,0.00,CLR,,0.00,WeatherDisplay:10.37,2013-05-24 10:40:00,
2013-05-24 06:45:00,43.8,21.6,29.24,NW,319,0.0,3.0,41,0.00,CLR,,0.00,WeatherDisplay:10.37,2013-05-24 10:45:00,
2013-05-24 06:50:00,44.8,21.3,29.24,NW,319,0.0,0.0,39,0.00,CLR,,0.00,WeatherDisplay:10.37,2013-05-24 10:50:00,
2013-05-24 06:55:00,45.3,19.9,29.26,NW,319,0.0,0.0,36,0.00,CLR,,0.00,WeatherDisplay:10.37,2013-05-24 10:55:00,
2013-05-24 07:00:00,45.8,16.8,29.26,NW,318,0.0,0.0,31,0.00,CLR,,0.00,WeatherDisplay:10.37,2013-05-24 11:00:00,
2013-05-24 07:05:00,46.4,15.8,29.26,NW,320,0.0,5.0,29,0.00,CLR,,0.00,WeatherDisplay:10.37,2013-05-24 11:05:00,
2013-05-24 07:10:00,47.2,15.7,29.26,NW,323,0.0,0.0,28,0.00,CLR,,0.00,WeatherDisplay:10.37,2013-05-24 11:10:00,
2013-05-24 07:15:00,47.8,15.4,29.26,NW,320,0.0,3.0,27,0.00,CLR,,0.00,WeatherDisplay:10.37,2013-05-24 11:15:00,
2013-05-24 07:20:00,48.0,12.8,29.26,NW,314,0.0,4.0,24,0.00,CLR,,0.00,WeatherDisplay:10.37,2013-05-24 11:20:00,
2013-05-24 07:25:00,48.1,11.0,29.26,NW,308,0.0,4.0,22,0.00,CLR,,0.00,WeatherDisplay:10.37,2013-05-24 11:25:00,
2013-05-24 07:30:00,48.7,10.5,29.26,NW,306,0.0,4.0,21,0.00,CLR,,0.00,WeatherDisplay:10.37,2013-05-24 11:30:00,
2013-05-24 07:35:00,49.4,11.0,29.26,NW,318,0.0,3.0,21,0.00,CLR,,0.00,WeatherDisplay:10.37,2013-05-24 11:35:00,
2013-05-24 07:40:00,49.5,8.9,29.26,NW,325,1.0,4.0,19,0.00,CLR,,0.00,WeatherDisplay:10.37,2013-05-24 11:40:00,
2013-05-24 07:45:00,49.3,8.7,29.26,NW,324,1.0,5.0,19,0.00,CLR,,0.00,WeatherDisplay:10.37,2013-05-24 11:45:00,
2013-05-24 07:55:00,49.6,9.0,29.26,NW,324,3.0,4.0,19,0.00,CLR,,0.00,WeatherDisplay:10.37,2013-05-24 11:55:00,
2013-05-24 08:05:00,51.5,10.5,29.26,NW,324,1.0,4.0,19,0.00,CLR,,0.00,WeatherDisplay:10.37,2013-05-24 12:05:00,
2013-05-24 08:10:00,52.0,9.7,29.26,NW,324,0.0,4.0,18,0.00,CLR,,0.00,WeatherDisplay:10.37,2013-05-24 12:10:00,
2013-05-24 08:15:00,52.3,10.0,29.26,NW,324,2.0,4.0,18,0.00,CLR,,0.00,WeatherDisplay:10.37,2013-05-24 12:15:00,
2013-05-24 08:20:00,52.9,10.5,29.26,NW,324,0.0,4.0,18,0.00,CLR,,0.00,WeatherDisplay:10.37,2013-05-24 12:20:00,
2013-05-24 08:25:00,53.2,10.8,29.28,NW,324,2.0,4.0,18,0.00,CLR,,0.00,WeatherDisplay:10.37,2013-05-24 12:25:00,
2013-05-24 08:30:00,52.9,10.5,29.29,NW,324,1.0,6.0,18,0.00,CLR,,0.00,WeatherDisplay:10.37,2013-05-24 12:30:00,
2013-05-24 08:35:00,53.3,10.8,29.29,NW,324,0.0,5.0,18,0.00,CLR,,0.00,WeatherDisplay:10.37,2013-05-24 12:35:00,
2013-05-24 08:40:00,52.8,10.4,29.29,NW,324,3.0,6.0,18,0.00,CLR,,0.00,WeatherDisplay:10.37,2013-05-24 12:40:00,
2013-05-24 08:45:00,53.1,10.6,29.29,NW,325,0.0,3.0,18,0.00,CLR,,0.00,WeatherDisplay:10.37,2013-05-24 12:45:00,
2013-05-24 08:50:00,53.3,10.8,29.29,NW,325,0.0,2.0,18,0.00,CLR,,0.00,WeatherDisplay:10.37,2013-05-24 12:50:00,
2013-05-24 08:55:00,52.9,10.5,29.32,NW,322,3.0,5.0,18,0.00,CLR,,0.00,WeatherDisplay:10.37,2013-05-24 12:55:00,
2013-05-24 09:00:00,52.4,10.1,29.32,NW,323,2.0,4.0,18,0.00,CLR,,0.00,WeatherDisplay:10.37,2013-05-24 13:00:00,
2013-05-24 09:05:00,52.4,10.1,29.32,NNW,327,2.0,4.0,18,0.00,CLR,,0.00,WeatherDisplay:10.37,2013-05-24 13:05:00,
2013-05-24 09:10:00,52.9,10.5,29.32,NNW,332,1.0,4.0,18,0.00,CLR,,0.00,WeatherDisplay:10.37,2013-05-24 13:10:00,
2013-05-24 09:15:00,53.6,11.0,29.32,NNW,347,1.0,4.0,18,0.00,CLR,,0.00,WeatherDisplay:10.37,2013-05-24 13:15:00,
2013-05-24 09:20:00,52.7,10.3,29.32,NNW,331,2.0,6.0,18,0.00,CLR,,0.00,WeatherDisplay:10.37,2013-05-24 13:20:00,
2013-05-24 09:25:00,53.4,10.9,29.32,NW,319,0.0,4.0,18,0.00,CLR,,0.00,WeatherDisplay:10.37,2013-05-24 13:25:00,
2013-05-24 09:30:00,53.4,10.9,29.32,NW,322,3.0,6.0,18,0.00,CLR,,0.00,WeatherDisplay:10.37,2013-05-24 13:30:00,
2013-05-24 09:35:00,53.3,10.8,29.32,NNW,336,1.0,7.0,18,0.00,CLR,,0.00,WeatherDisplay:10.37,2013-05-24 13:35:00,
2013-05-24 09:40:00,53.9,11.3,29.32,NNW,342,2.0,5.0,18,0.00,CLR,,0.00,WeatherDisplay:10.37,2013-05-24 13:40:00,
2013-05-24 09:45:00,54.1,11.4,29.32,North,350,0.0,4.0,18,0.00,CLR,,0.00,WeatherDisplay:10.37,2013-05-24 13:45:00,
2013-05-24 09:50:00,54.1,11.5,29.32,North,357,2.0,4.0,18,0.00,CLR,,0.00,WeatherDisplay:10.37,2013-05-24 13:50:00,
2013-05-24 09:55:00,54.3,11.6,29.32,NW,326,3.0,5.0,18,0.00,CLR,,0.00,WeatherDisplay:10.37,2013-05-24 13:55:00,
2013-05-24 10:00:00,55.0,12.2,29.32,North,351,1.0,4.0,18,0.00,CLR,,0.00,WeatherDisplay:10.37,2013-05-24 14:00:00,
2013-05-24 10:05:00,55.8,11.5,29.32,NE,54,0.0,5.0,17,0.00,CLR,,0.00,WeatherDisplay:10.37,2013-05-24 14:05:00,
2013-05-24 10:10:00,55.9,11.7,29.32,North,5,2.0,6.0,17,0.00,CLR,,0.00,WeatherDisplay:10.37,2013-05-24 14:10:00,
2013-05-24 10:15:00,55.8,11.5,29.32,NNW,339,0.0,4.0,17,0.00,CLR,,0.00,WeatherDisplay:10.37,2013-05-24 14:15:00,
2013-05-24 10:20:00,55.9,11.6,29.32,NW,326,3.0,6.0,17,0.00,CLR,,0.00,WeatherDisplay:10.37,2013-05-24 14:20:00,
2013-05-24 10:25:00,55.2,12.3,29.32,NNW,328,2.0,6.0,18,0.00,CLR,,0.00,WeatherDisplay:10.37,2013-05-24 14:25:00,
2013-05-24 10:30:00,55.6,11.4,29.32,NNW,341,2.0,5.0,17,0.00,CLR,,0.00,WeatherDisplay:10.37,2013-05-24 14:30:00,
2013-05-24 10:35:00,56.2,11.9,29.32,North,2,2.0,5.0,17,0.00,CLR,,0.00,WeatherDisplay:10.37,2013-05-24 14:35:00,
2013-05-24 10:40:00,56.4,12.1,29.32,NNE,33,2.0,5.0,17,0.00,CLR,,0.00,WeatherDisplay:10.37,2013-05-24 14:40:00,
2013-05-24 10:45:00,56.1,11.8,29.32,NNW,332,5.0,6.0,17,0.00,CLR,,0.00,WeatherDisplay:10.37,2013-05-24 14:45:00,
2013-05-24 10:50:00,55.8,11.6,29.32,NW,316,1.0,6.0,17,0.00,CLR,,0.00,WeatherDisplay:10.37,2013-05-24 14:50:00,
2013-05-24 10:55:00,56.2,11.9,29.32,NW,319,2.0,6.0,17,0.00,CLR,,0.00,WeatherDisplay:10.37,2013-05-24 14:55:00,
2013-05-24 11:00:00,56.8,12.3,29.32,NNW,329,3.0,6.0,17,0.00,CLR,,0.00,WeatherDisplay:10.37,2013-05-24 15:00:00,
2013-05-24 11:05:00,56.5,12.1,29.32,NW,324,5.0,6.0,17,0.00,CLR,,0.00,WeatherDisplay:10.37,2013-05-24 15:05:00,
2013-05-24 11:10:00,56.7,12.3,29.32,NNW,329,3.0,6.0,17,0.00,CLR,,0.00,WeatherDisplay:10.37,2013-05-24 15:10:00,
2013-05-24 11:15:00,56.3,12.0,29.32,NW,322,3.0,8.0,17,0.00,CLR,,0.00,WeatherDisplay:10.37,2013-05-24 15:15:00,
2013-05-24 11:20:00,56.9,12.5,29.32,NNW,330,1.0,6.0,17,0.00,CLR,,0.00,WeatherDisplay:10.37,2013-05-24 15:20:00,
2013-05-24 11:25:00,57.6,13.0,29.32,North,351,2.0,8.0,17,0.00,CLR,,0.00,WeatherDisplay:10.37,2013-05-24 15:25:00,
2013-05-24 11:30:00,58.4,13.7,29.32,NNW,347,2.0,6.0,17,0.00,CLR,,0.00,WeatherDisplay:10.37,2013-05-24 15:30:00,
2013-05-24 11:40:00,58.3,13.6,29.32,NNW,335,1.0,7.0,17,0.00,CLR,,0.00,WeatherDisplay:10.37,2013-05-24 15:40:00,
2013-05-24 11:45:00,57.5,12.9,29.32,NNW,333,6.0,8.0,17,0.00,CLR,,0.00,WeatherDisplay:10.37,2013-05-24 15:45:00,
2013-05-24 11:50:00,57.3,12.8,29.32,NW,321,3.0,8.0,17,0.00,CLR,,0.00,WeatherDisplay:10.37,2013-05-24 15:50:00,
2013-05-24 11:55:00,57.5,13.0,29.32,NW,317,5.0,6.0,17,0.00,CLR,,0.00,WeatherDisplay:10.37,2013-05-24 15:55:00,
2013-05-24 12:00:00,57.6,13.0,29.32,NW,326,6.0,8.0,17,0.00,CLR,,0.00,WeatherDisplay:10.37,2013-05-24 16:00:00,
2013-05-24 12:05:00,57.8,13.2,29.32,NNW,327,7.0,8.0,17,0.00,CLR,,0.00,WeatherDisplay:10.37,2013-05-24 16:05:00,
2013-05-24 12:10:00,57.9,13.3,29.33,NW,326,5.0,9.0,17,0.00,CLR,,0.00,WeatherDisplay:10.37,2013-05-24 16:10:00,
2013-05-24 12:15:00,58.4,13.7,29.35,NNW,329,2.0,6.0,17,0.00,CLR,,0.00,WeatherDisplay:10.37,2013-05-24 16:15:00,
2013-05-24 12:20:00,59.4,14.5,29.35,NNW,339,3.0,6.0,17,0.00,CLR,,0.00,WeatherDisplay:10.37,2013-05-24 16:20:00,
2013-05-24 12:25:00,60.1,15.1,29.35,NNW,338,2.0,6.0,17,0.00,CLR,,0.00,WeatherDisplay:10.37,2013-05-24 16:25:00,
2013-05-24 12:30:00,59.2,14.3,29.35,NW,321,7.0,10.0,17,0.00,CLR,,0.00,WeatherDisplay:10.37,2013-05-24 16:30:00,
2013-05-24 12:35:00,58.9,14.1,29.35,NW,326,3.0,7.0,17,0.00,CLR,,0.00,WeatherDisplay:10.37,2013-05-24 16:35:00,
2013-05-24 12:40:00,59.2,14.3,29.35,North,9,2.0,6.0,17,0.00,CLR,,0.00,WeatherDisplay:10.37,2013-05-24 16:40:00,
2013-05-24 12:45:00,59.7,14.8,29.35,NE,42,2.0,6.0,17,0.00,CLR,,0.00,WeatherDisplay:10.37,2013-05-24 16:45:00,
2013-05-24 12:50:00,60.1,15.1,29.35,NW,321,0.0,8.0,17,0.00,CLR,,0.00,WeatherDisplay:10.37,2013-05-24 16:50:00,
2013-05-24 12:55:00,60.2,15.2,29.33,North,6,3.0,7.0,17,0.00,CLR,,0.00,WeatherDisplay:10.37,2013-05-24 16:55:00,
2013-05-24 13:00:00,60.3,15.2,29.32,NNE,20,3.0,6.0,17,0.00,CLR,,0.00,WeatherDisplay:10.37,2013-05-24 17:00:00,
2013-05-24 13:05:00,60.9,14.3,29.32,NNW,343,2.0,6.0,16,0.00,CLR,,0.00,WeatherDisplay:10.37,2013-05-24 17:05:00,
2013-05-24 13:10:00,60.3,15.3,29.32,NW,324,6.0,9.0,17,0.00,CLR,,0.00,WeatherDisplay:10.37,2013-05-24 17:10:00,
2013-05-24 13:15:00,60.1,15.1,29.32,NW,322,6.0,8.0,17,0.00,CLR,,0.00,WeatherDisplay:10.37,2013-05-24 17:15:00,
2013-05-24 13:20:00,59.8,14.8,29.32,NW,324,6.0,9.0,17,0.00,CLR,,0.00,WeatherDisplay:10.37,2013-05-24 17:20:00,
2013-05-24 13:25:00,60.9,14.3,29.32,NNW,336,2.0,6.0,16,0.00,CLR,,0.00,WeatherDisplay:10.37,2013-05-24 17:25:00,
2013-05-24 13:30:00,61.7,15.0,29.32,North,3,3.0,6.0,16,0.00,CLR,,0.00,WeatherDisplay:10.37,2013-05-24 17:30:00,
2013-05-24 13:35:00,61.2,14.6,29.32,NNW,334,6.0,10.0,16,0.00,CLR,,0.00,WeatherDisplay:10.37,2013-05-24 17:35:00,
2013-05-24 13:40:00,60.3,15.3,29.32,NW,316,6.0,8.0,17,0.00,CLR,,0.00,WeatherDisplay:10.37,2013-05-24 17:40:00,
2013-05-24 13:45:00,61.0,14.4,29.32,NW,324,0.0,8.0,16,0.00,CLR,,0.00,WeatherDisplay:10.37,2013-05-24 17:45:00,
2013-05-24 13:50:00,61.4,14.8,29.32,NNW,342,6.0,9.0,16,0.00,CLR,,0.00,WeatherDisplay:10.37,2013-05-24 17:50:00,
2013-05-24 13:55:00,61.2,14.5,29.32,NW,318,5.0,6.0,16,0.00,CLR,,0.00,WeatherDisplay:10.37,2013-05-24 17:55:00,
2013-05-24 14:00:00,60.8,14.3,29.32,NW,323,5.0,9.0,16,0.00,CLR,,0.00,WeatherDisplay:10.37,2013-05-24 18:00:00,
2013-05-24 14:05:00,61.9,15.1,29.32,NW,326,2.0,7.0,16,0.00,CLR,,0.00,WeatherDisplay:10.37,2013-05-24 18:05:00,
2013-05-24 14:10:00,61.1,14.5,29.35,NW,323,6.0,8.0,16,0.00,CLR,,0.00,WeatherDisplay:10.37,2013-05-24 18:10:00,
2013-05-24 14:15:00,62.4,15.5,29.35,NNW,334,2.0,6.0,16,0.00,CLR,,0.00,WeatherDisplay:10.37,2013-05-24 18:15:00,
2013-05-24 14:20:00,62.4,15.5,29.35,North,349,5.0,12.0,16,0.00,CLR,,0.00,WeatherDisplay:10.37,2013-05-24 18:20:00,
2013-05-24 14:25:00,61.9,15.1,29.33,NW,316,6.0,9.0,16,0.00,CLR,,0.00,WeatherDisplay:10.37,2013-05-24 18:25:00,
2013-05-24 14:30:00,62.4,15.6,29.32,NW,311,3.0,8.0,16,0.00,CLR,,0.00,WeatherDisplay:10.37,2013-05-24 18:30:00,
2013-05-24 14:35:00,62.4,15.6,29.32,NW,326,7.0,11.0,16,0.00,CLR,,0.00,WeatherDisplay:10.37,2013-05-24 18:35:00,
2013-05-24 14:40:00,63.1,16.2,29.32,NNW,335,3.0,8.0,16,0.00,CLR,,0.00,WeatherDisplay:10.37,2013-05-24 18:40:00,
2013-05-24 14:45:00,63.1,16.2,29.32,NW,315,3.0,8.0,16,0.00,CLR,,0.00,WeatherDisplay:10.37,2013-05-24 18:45:00,
2013-05-24 14:50:00,63.5,16.4,29.32,NNW,338,3.0,6.0,16,0.00,CLR,,0.00,WeatherDisplay:10.37,2013-05-24 18:50:00,
2013-05-24 14:55:00,63.5,16.5,29.32,NNE,23,2.0,8.0,16,0.00,CLR,,0.00,WeatherDisplay:10.37,2013-05-24 18:55:00,
2013-05-24 15:00:00,63.9,16.7,29.32,NNE,23,2.0,4.0,16,0.00,CLR,,0.00,WeatherDisplay:10.37,2013-05-24 19:00:00,
2013-05-24 15:05:00,64.0,16.8,29.32,North,358,5.0,6.0,16,0.00,CLR,,0.00,WeatherDisplay:10.37,2013-05-24 19:05:00,
2013-05-24 15:10:00,63.9,16.7,29.32,North,6,0.0,10.0,16,0.00,CLR,,0.00,WeatherDisplay:10.37,2013-05-24 19:10:00,
2013-05-24 15:15:00,63.9,16.7,29.32,NNE,31,3.0,8.0,16,0.00,CLR,,0.00,WeatherDisplay:10.37,2013-05-24 19:15:00,
2013-05-24 15:20:00,64.0,16.8,29.32,NNW,348,5.0,8.0,16,0.00,CLR,,0.00,WeatherDisplay:10.37,2013-05-24 19:20:00,
2013-05-24 15:25:00,63.3,16.3,29.32,NNW,335,3.0,9.0,16,0.00,CLR,,0.00,WeatherDisplay:10.37,2013-05-24 19:25:00,
2013-05-24 15:30:00,64.2,17.0,29.32,North,353,2.0,6.0,16,0.00,CLR,,0.00,WeatherDisplay:10.37,2013-05-24 19:30:00,
2013-05-24 15:35:00,64.9,16.1,29.32,NE,53,2.0,6.0,15,0.00,CLR,,0.00,WeatherDisplay:10.37,2013-05-24 19:35:00,
2013-05-24 15:40:00,64.8,16.0,29.32,NNE,30,3.0,6.0,15,0.00,CLR,,0.00,WeatherDisplay:10.37,2013-05-24 19:40:00,
2013-05-24 15:45:00,65.3,16.4,29.32,West,271,2.0,6.0,15,0.00,CLR,,0.00,WeatherDisplay:10.37,2013-05-24 19:45:00,
2013-05-24 15:50:00,64.6,15.9,29.32,NNW,334,6.0,8.0,15,0.00,CLR,,0.00,WeatherDisplay:10.37,2013-05-24 19:50:00,
2013-05-24 15:55:00,64.6,15.9,29.32,NNW,333,5.0,8.0,15,0.00,CLR,,0.00,WeatherDisplay:10.37,2013-05-24 19:55:00,
2013-05-24 16:00:00,65.1,16.3,29.32,NW,316,1.0,6.0,15,0.00,CLR,,0.00,WeatherDisplay:10.37,2013-05-24 20:00:00,
2013-05-24 16:05:00,65.6,16.6,29.32,NNW,330,3.0,7.0,15,0.00,CLR,,0.00,WeatherDisplay:10.37,2013-05-24 20:05:00,
2013-05-24 16:10:00,65.8,16.8,29.32,NNW,335,3.0,6.0,15,0.00,CLR,,0.00,WeatherDisplay:10.37,2013-05-24 20:10:00,
2013-05-24 16:15:00,65.5,16.5,29.32,NW,315,3.0,8.0,15,0.00,CLR,,0.00,WeatherDisplay:10.37,2013-05-24 20:15:00,
2013-05-24 16:20:00,65.3,16.4,29.32,NW,324,1.0,8.0,15,0.00,CLR,,0.00,WeatherDisplay:10.37,2013-05-24 20:20:00,
2013-05-24 16:25:00,66.1,17.1,29.32,NNW,343,0.0,6.0,15,0.00,CLR,,0.00,WeatherDisplay:10.37,2013-05-24 20:25:00,
2013-05-24 16:30:00,66.3,17.2,29.32,North,356,0.0,5.0,15,0.00,CLR,,0.00,WeatherDisplay:10.37,2013-05-24 20:30:00,
2013-05-24 16:35:00,66.4,17.3,29.32,NNW,331,2.0,4.0,15,0.00,CLR,,0.00,WeatherDisplay:10.37,2013-05-24 20:35:00,
2013-05-24 16:40:00,66.3,17.2,29.32,North,359,1.0,6.0,15,0.00,CLR,,0.00,WeatherDisplay:10.37,2013-05-24 20:40:00,
2013-05-24 16:45:00,66.4,17.3,29.32,NNW,331,1.0,8.0,15,0.00,CLR,,0.00,WeatherDisplay:10.37,2013-05-24 20:45:00,
2013-05-24 16:50:00,66.4,17.3,29.32,NW,305,0.0,7.0,15,0.00,CLR,,0.00,WeatherDisplay:10.37,2013-05-24 20:50:00,
2013-05-24 16:55:00,66.2,17.1,29.32,NW,325,5.0,8.0,15,0.00,CLR,,0.00,WeatherDisplay:10.37,2013-05-24 20:55:00,
2013-05-24 17:00:00,66.7,17.6,29.32,NW,316,1.0,5.0,15,0.00,CLR,,0.00,WeatherDisplay:10.37,2013-05-24 21:00:00,
2013-05-24 17:05:00,66.7,17.5,29.32,NNW,341,5.0,7.0,15,0.00,CLR,,0.00,WeatherDisplay:10.37,2013-05-24 21:05:00,
2013-05-24 17:10:00,66.9,17.7,29.32,NNE,22,1.0,5.0,15,0.00,CLR,,0.00,WeatherDisplay:10.37,2013-05-24 21:10:00,
2013-05-24 17:15:00,66.6,17.4,29.32,North,2,5.0,6.0,15,0.00,CLR,,0.00,WeatherDisplay:10.37,2013-05-24 21:15:00,
2013-05-24 17:20:00,66.9,17.7,29.32,NW,322,2.0,6.0,15,0.00,CLR,,0.00,WeatherDisplay:10.37,2013-05-24 21:20:00,
2013-05-24 17:25:00,66.8,17.6,29.32,NW,314,0.0,6.0,15,0.00,CLR,,0.00,WeatherDisplay:10.37,2013-05-24 21:25:00,
2013-05-24 17:30:00,66.7,17.6,29.32,NNE,28,2.0,5.0,15,0.00,CLR,,0.00,WeatherDisplay:10.37,2013-05-24 21:30:00,
2013-05-24 17:35:00,66.9,17.7,29.32,ESE,106,0.0,3.0,15,0.00,CLR,,0.00,WeatherDisplay:10.37,2013-05-24 21:35:00,
2013-05-24 17:40:00,66.7,17.6,29.32,ENE,78,3.0,4.0,15,0.00,CLR,,0.00,WeatherDisplay:10.37,2013-05-24 21:40:00,
2013-05-24 17:45:00,66.9,17.7,29.32,NNE,28,0.0,6.0,15,0.00,CLR,,0.00,WeatherDisplay:10.37,2013-05-24 21:45:00,
2013-05-24 17:50:00,66.4,17.3,29.32,NNW,332,3.0,6.0,15,0.00,CLR,,0.00,WeatherDisplay:10.37,2013-05-24 21:50:00,
2013-05-24 17:55:00,66.0,17.0,29.29,NW,315,1.0,7.0,15,0.00,CLR,,0.00,WeatherDisplay:10.37,2013-05-24 21:55:00,
2013-05-24 18:00:00,66.0,17.0,29.29,NW,317,5.0,6.0,15,0.00,CLR,,0.00,WeatherDisplay:10.37,2013-05-24 22:00:00,
2013-05-24 18:05:00,66.7,17.5,29.29,NNW,330,0.0,6.0,15,0.00,CLR,,0.00,WeatherDisplay:10.37,2013-05-24 22:05:00,
2013-05-24 18:10:00,66.9,17.7,29.29,NNW,339,5.0,6.0,15,0.00,CLR,,0.00,WeatherDisplay:10.37,2013-05-24 22:10:00,
2013-05-24 18:15:00,66.8,17.6,29.29,NW,324,0.0,6.0,15,0.00,CLR,,0.00,WeatherDisplay:10.37,2013-05-24 22:15:00,
2013-05-24 18:20:00,66.6,17.4,29.29,WNW,302,2.0,6.0,15,0.00,CLR,,0.00,WeatherDisplay:10.37,2013-05-24 22:20:00,
2013-05-24 18:25:00,67.0,17.8,29.29,WNW,290,3.0,6.0,15,0.00,CLR,,0.00,WeatherDisplay:10.37,2013-05-24 22:25:00,
2013-05-24 18:30:00,67.6,18.2,29.29,NW,314,1.0,4.0,15,0.00,CLR,,0.00,WeatherDisplay:10.37,2013-05-24 22:30:00,
2013-05-24 18:35:00,68.0,18.6,29.29,NNW,334,2.0,4.0,15,0.00,CLR,,0.00,WeatherDisplay:10.37,2013-05-24 22:35:00,
2013-05-24 18:40:00,67.5,18.1,29.29,NNW,327,2.0,6.0,15,0.00,CLR,,0.00,WeatherDisplay:10.37,2013-05-24 22:40:00,
2013-05-24 18:45:00,67.5,18.1,29.29,NW,324,1.0,6.0,15,0.00,CLR,,0.00,WeatherDisplay:10.37,2013-05-24 22:45:00,
2013-05-24 18:50:00,67.6,18.3,29.29,NW,317,0.0,5.0,15,0.00,CLR,,0.00,WeatherDisplay:10.37,2013-05-24 22:50:00,
2013-05-24 18:55:00,67.8,18.4,29.29,North,357,1.0,3.0,15,0.00,CLR,,0.00,WeatherDisplay:10.37,2013-05-24 22:55:00,
2013-05-24 19:00:00,67.6,18.3,29.29,ENE,77,1.0,5.0,15,0.00,CLR,,0.00,WeatherDisplay:10.37,2013-05-24 23:00:00,
2013-05-24 19:05:00,67.5,18.1,29.29,ENE,72,0.0,4.0,15,0.00,CLR,,0.00,WeatherDisplay:10.37,2013-05-24 23:05:00,
2013-05-24 19:10:00,67.3,18.0,29.27,East,81,0.0,5.0,15,0.00,CLR,,0.00,WeatherDisplay:10.37,2013-05-24 23:10:00,
2013-05-24 19:15:00,67.5,18.1,29.26,ESE,102,0.0,3.0,15,0.00,CLR,,0.00,WeatherDisplay:10.37,2013-05-24 23:15:00,
2013-05-24 19:20:00,67.5,18.1,29.26,East,81,3.0,4.0,15,0.00,CLR,,0.00,WeatherDisplay:10.37,2013-05-24 23:20:00,
2013-05-24 19:25:00,67.1,17.8,29.26,NE,42,0.0,6.0,15,0.00,CLR,,0.00,WeatherDisplay:10.37,2013-05-24 23:25:00,
2013-05-24 19:30:00,67.5,18.1,29.26,NNW,339,0.0,4.0,15,0.00,CLR,,0.00,WeatherDisplay:10.37,2013-05-24 23:30:00,
2013-05-24 19:35:00,67.3,18.0,29.26,NW,314,1.0,5.0,15,0.00,CLR,,0.00,WeatherDisplay:10.37,2013-05-24 23:35:00,
2013-05-24 19:40:00,67.6,18.3,29.26,NW,315,2.0,4.0,15,0.00,CLR,,0.00,WeatherDisplay:10.37,2013-05-24 23:40:00,
2013-05-24 19:45:00,67.8,18.4,29.26,NW,318,0.0,3.0,15,0.00,CLR,,0.00,WeatherDisplay:10.37,2013-05-24 23:45:00,
2013-05-24 19:50:00,68.2,18.7,29.26,NW,312,0.0,0.0,15,0.00,CLR,,0.00,WeatherDisplay:10.37,2013-05-24 23:50:00,
2013-05-24 19:55:00,69.0,19.3,29.26,NW,320,0.0,3.0,15,0.00,CLR,,0.00,WeatherDisplay:10.37,2013-05-24 23:55:00,
2013-05-24 20:00:00,70.4,18.9,29.26,NW,309,0.0,0.0,14,0.00,CLR,,0.00,WeatherDisplay:10.37,2013-05-25 00:00:00,
2013-05-24 20:05:00,71.5,19.8,29.26,WNW,301,0.0,3.0,14,0.00,CLR,,0.00,WeatherDisplay:10.37,2013-05-25 00:05:00,
2013-05-24 20:10:00,71.9,20.1,29.26,WNW,292,0.0,0.0,14,0.00,CLR,,0.00,WeatherDisplay:10.37,2013-05-25 00:10:00,
2013-05-24 20:15:00,71.2,19.5,29.26,NNE,24,0.0,0.0,14,0.00,CLR,,0.00,WeatherDisplay:10.37,2013-05-25 00:15:00,
2013-05-24 20:20:00,70.3,18.8,29.26,ENE,70,0.0,0.0,14,0.00,CLR,,0.00,WeatherDisplay:10.37,2013-05-25 00:20:00,
2013-05-24 20:25:00,69.4,19.7,29.26,ENE,71,0.0,0.0,15,0.00,CLR,,0.00,WeatherDisplay:10.37,2013-05-25 00:25:00,
2013-05-24 20:30:00,68.2,18.7,29.26,ENE,71,0.0,0.0,15,0.00,CLR,,0.00,WeatherDisplay:10.37,2013-05-25 00:30:00,
2013-05-24 20:40:00,65.6,16.6,29.26,ENE,71,0.0,0.0,15,0.00,CLR,,0.00,WeatherDisplay:10.37,2013-05-25 00:40:00,
2013-05-24 20:45:00,63.8,16.7,29.26,ENE,71,0.0,0.0,16,0.00,CLR,,0.00,WeatherDisplay:10.37,2013-05-25 00:45:00,
2013-05-24 20:50:00,62.1,15.3,29.26,ENE,71,0.0,0.0,16,0.00,CLR,,0.00,WeatherDisplay:10.37,2013-05-25 00:50:00,
2013-05-24 20:55:00,61.0,14.4,29.26,ENE,71,0.0,0.0,16,0.00,CLR,,0.00,WeatherDisplay:10.37,2013-05-25 00:55:00,
2013-05-24 21:00:00,59.8,14.8,29.26,ENE,71,0.0,0.0,17,0.00,CLR,,0.00,WeatherDisplay:10.37,2013-05-25 01:00:00,
2013-05-24 21:05:00,59.0,14.2,29.26,ENE,71,0.0,0.0,17,0.00,CLR,,0.00,WeatherDisplay:10.37,2013-05-25 01:05:00,
2013-05-24 21:10:00,58.1,13.5,29.26,ENE,71,0.0,0.0,17,0.00,CLR,,0.00,WeatherDisplay:10.37,2013-05-25 01:10:00,
2013-05-24 21:15:00,57.5,13.0,29.26,ENE,71,0.0,0.0,17,0.00,CLR,,0.00,WeatherDisplay:10.37,2013-05-25 01:15:00,
2013-05-24 21:20:00,56.8,12.4,29.26,ENE,71,0.0,0.0,17,0.00,CLR,,0.00,WeatherDisplay:10.37,2013-05-25 01:20:00,
2013-05-24 21:25:00,56.2,11.9,29.26,ENE,71,0.0,0.0,17,0.00,CLR,,0.00,WeatherDisplay:10.37,2013-05-25 01:25:00,
2013-05-24 21:30:00,55.9,11.7,29.26,ENE,71,0.0,0.0,17,0.00,CLR,,0.00,WeatherDisplay:10.37,2013-05-25 01:30:00,
2013-05-24 21:35:00,55.8,11.5,29.26,ENE,71,0.0,0.0,17,0.00,CLR,,0.00,WeatherDisplay:10.37,2013-05-25 01:35:00,
2013-05-24 21:40:00,55.0,12.2,29.27,ENE,71,0.0,0.0,18,0.00,CLR,,0.00,WeatherDisplay:10.37,2013-05-25 01:40:00,
2013-05-24 21:45:00,54.5,11.8,29.29,ENE,71,0.0,0.0,18,0.00,CLR,,0.00,WeatherDisplay:10.37,2013-05-25 01:45:00,
2013-05-24 21:50:00,54.3,11.6,29.29,ENE,71,0.0,0.0,18,0.00,CLR,,0.00,WeatherDisplay:10.37,2013-05-25 01:50:00,
2013-05-24 21:55:00,54.1,11.5,29.29,ENE,71,0.0,0.0,18,0.00,CLR,,0.00,WeatherDisplay:10.37,2013-05-25 01:55:00,
2013-05-24 22:00:00,53.9,11.3,29.29,ENE,71,0.0,0.0,18,0.00,CLR,,0.00,WeatherDisplay:10.37,2013-05-25 02:00:00,
2013-05-24 22:05:00,53.4,10.9,29.29,ENE,71,0.0,0.0,18,0.00,CLR,,0.00,WeatherDisplay:10.37,2013-05-25 02:05:00,
2013-05-24 22:10:00,52.8,10.4,29.29,ENE,71,0.0,0.0,18,0.00,CLR,,0.00,WeatherDisplay:10.37,2013-05-25 02:10:00,
2013-05-24 22:15:00,52.3,10.0,29.29,ENE,71,0.0,0.0,18,0.00,CLR,,0.00,WeatherDisplay:10.37,2013-05-25 02:15:00,
2013-05-24 22:20:00,52.3,10.0,29.29,ENE,71,0.0,0.0,18,0.00,CLR,,0.00,WeatherDisplay:10.37,2013-05-25 02:20:00,
2013-05-24 22:25:00,52.3,10.0,29.29,ENE,71,0.0,0.0,18,0.00,CLR,,0.00,WeatherDisplay:10.37,2013-05-25 02:25:00,
2013-05-24 22:30:00,51.8,9.6,29.29,ENE,71,0.0,0.0,18,0.00,CLR,,0.00,WeatherDisplay:10.37,2013-05-25 02:30:00,
2013-05-24 22:35:00,51.3,10.3,29.29,ENE,71,0.0,0.0,19,0.00,CLR,,0.00,WeatherDisplay:10.37,2013-05-25 02:35:00,
2013-05-24 22:40:00,50.9,10.0,29.32,ENE,71,0.0,0.0,19,0.00,CLR,,0.00,WeatherDisplay:10.37,2013-05-25 02:40:00,
2013-05-24 22:45:00,50.5,9.7,29.32,ENE,71,0.0,0.0,19,0.00,CLR,,0.00,WeatherDisplay:10.37,2013-05-25 02:45:00,
2013-05-24 22:50:00,50.1,9.4,29.32,ENE,71,0.0,0.0,19,0.00,CLR,,0.00,WeatherDisplay:10.37,2013-05-25 02:50:00,
2013-05-24 22:55:00,49.5,8.8,29.32,ENE,71,0.0,0.0,19,0.00,CLR,,0.00,WeatherDisplay:10.37,2013-05-25 02:55:00,
2013-05-24 23:05:00,49.8,9.1,29.32,ENE,71,0.0,0.0,19,0.00,CLR,,0.00,WeatherDisplay:10.37,2013-05-25 03:05:00,
2013-05-24 23:10:00,49.6,9.0,29.30,ENE,71,0.0,0.0,19,0.00,CLR,,0.00,WeatherDisplay:10.37,2013-05-25 03:10:00,
2013-05-24 23:15:00,49.1,8.5,29.29,ENE,71,0.0,0.0,19,0.00,CLR,,0.00,WeatherDisplay:10.37,2013-05-25 03:15:00,
2013-05-24 23:20:00,48.9,8.4,29.29,ENE,71,0.0,0.0,19,0.00,CLR,,0.00,WeatherDisplay:10.37,2013-05-25 03:20:00,
2013-05-24 23:25:00,48.7,8.2,29.32,ENE,71,0.0,0.0,19,0.00,CLR,,0.00,WeatherDisplay:10.37,2013-05-25 03:25:00,
2013-05-24 23:35:00,48.7,8.2,29.32,ENE,71,0.0,0.0,19,0.00,CLR,,0.00,WeatherDisplay:10.37,2013-05-25 03:35:00,
2013-05-24 23:40:00,48.2,7.8,29.32,ENE,71,0.0,0.0,19,0.00,CLR,,0.00,WeatherDisplay:10.37,2013-05-25 03:40:00,
2013-05-24 23:45:00,47.9,7.6,29.32,ENE,71,0.0,0.0,19,0.00,CLR,,0.00,WeatherDisplay:10.37,2013-05-25 03:45:00,
2013-05-24 23:50:00,47.7,7.3,29.32,ENE,71,0.0,0.0,19,0.00,CLR,,0.00,WeatherDisplay:10.37,2013-05-25 03:50:00,
2013-05-24 23:55:00,47.7,7.3,29.32,ENE,71,0.0,0.0,19,0.00,CLR,,0.00,WeatherDisplay:10.37,2013-05-25 03:55:00,